| time (UTC) | temp F | wind direction | speed MPH | gust MPH | rain 1hr in | rain 24hr in | rain mn in | humidity % | barometer mb |
| 20260506134018 | 61 | 196 | 1.0 | 8.0 | 0.00 | 0.00 | 0.00 | 86 | 1011.0 |
| 20260506133515 | 61 | 177 | 5.0 | 10.0 | 0.00 | 0.00 | 0.00 | 85 | 1011.0 |
| 20260506133012 | 61 | 226 | 4.0 | 7.0 | 0.00 | 0.00 | 0.00 | 85 | 1010.9 |
| 20260506132509 | 61 | 144 | 3.0 | 14.0 | 0.00 | 0.00 | 0.00 | 85 | 1010.9 |
| 20260506132007 | 60 | 301 | 4.0 | 10.0 | 0.00 | 0.00 | 0.00 | 87 | 1010.9 |
| 20260506131504 | 60 | 297 | 4.0 | 10.0 | 0.00 | 0.00 | 0.00 | 87 | 1010.8 |
| 20260506131000 | 60 | 175 | 5.0 | 10.0 | 0.00 | 0.00 | 0.00 | 87 | 1010.7 |
| 20260506130456 | 60 | 213 | 6.0 | 11.0 | 0.00 | 0.00 | 0.00 | 87 | 1010.8 |
| 20260506125954 | 60 | 196 | 4.0 | 7.0 | 0.00 | 0.00 | 0.00 | 87 | 1010.9 |
| 20260506125453 | 60 | 261 | 6.0 | 10.0 | 0.00 | 0.00 | 0.00 | 86 | 1010.8 |
| 20260506124950 | 61 | 200 | 4.0 | 7.0 | 0.00 | 0.00 | 0.00 | 86 | 1010.8 |
| 20260506124447 | 61 | 194 | 5.0 | 9.0 | 0.00 | 0.00 | 0.00 | 86 | 1010.7 |
| 20260506123945 | 60 | 172 | 3.0 | 8.0 | 0.00 | 0.00 | 0.00 | 86 | 1010.7 |
| 20260506123443 | 60 | 219 | 2.0 | 7.0 | 0.00 | 0.00 | 0.00 | 86 | 1011.1 |
| 20260506122940 | 61 | 248 | 1.0 | 8.0 | 0.00 | 0.00 | 0.00 | 86 | 1011.0 |
| 20260506122437 | 61 | 256 | 2.0 | 7.0 | 0.00 | 0.00 | 0.00 | 86 | 1011.1 |
| 20260506121936 | 60 | 199 | 7.0 | 10.0 | 0.00 | 0.00 | 0.00 | 86 | 1011.4 |
| 20260506121432 | 60 | 239 | 5.0 | 8.0 | 0.00 | 0.00 | 0.00 | 86 | 1011.3 |
| 20260506120929 | 60 | 190 | 2.0 | 7.0 | 0.00 | 0.00 | 0.00 | 87 | 1011.2 |
| 20260506120426 | 60 | 199 | 3.0 | 8.0 | 0.00 | 0.00 | 0.00 | 86 | 1011.1 |
| 20260506115924 | 61 | 248 | 2.0 | 7.0 | 0.00 | 0.00 | 0.00 | 86 | 1011.2 |
| 20260506115422 | 60 | 200 | 2.0 | 10.0 | 0.00 | 0.00 | 0.00 | 87 | 1011.1 |
| 20260506114920 | 60 | 193 | 4.0 | 8.0 | 0.00 | 0.00 | 0.00 | 87 | 1011.1 |
| 20260506114417 | 60 | 178 | 2.0 | 10.0 | 0.00 | 0.00 | 0.00 | 87 | 1011.0 |
| 20260506113916 | 60 | 187 | 4.0 | 8.0 | 0.00 | 0.00 | 0.00 | 88 | 1011.0 |
| 20260506113413 | 59 | 177 | 3.0 | 10.0 | 0.00 | 0.00 | 0.00 | 88 | 1011.0 |
| 20260506112909 | 59 | 258 | 4.0 | 7.0 | 0.00 | 0.00 | 0.00 | 89 | 1011.0 |
| 20260506112407 | 59 | 204 | 4.0 | 9.0 | 0.00 | 0.00 | 0.00 | 89 | 1011.0 |
| 20260506111904 | 59 | 250 | 2.0 | 7.0 | 0.00 | 0.00 | 0.00 | 90 | 1011.2 |
| 20260506111402 | 58 | 248 | 4.0 | 9.0 | 0.00 | 0.00 | 0.00 | 91 | 1011.1 |
| 20260506110859 | 58 | 251 | 5.0 | 11.0 | 0.00 | 0.00 | 0.00 | 91 | 1011.1 |
| 20260506110356 | 57 | 244 | 5.0 | 9.0 | 0.00 | 0.00 | 0.00 | 92 | 1011.0 |
| 20260506105853 | 57 | 242 | 3.0 | 6.0 | 0.00 | 0.00 | 0.00 | 93 | 1011.3 |
| 20260506105349 | 57 | 209 | 3.0 | 4.0 | 0.00 | 0.00 | 0.00 | 93 | 1011.4 |
| 20260506104847 | 57 | 249 | 4.0 | 7.0 | 0.00 | 0.00 | 0.00 | 93 | 1011.0 |
| 20260506104345 | 57 | 248 | 4.0 | 10.0 | 0.00 | 0.00 | 0.00 | 93 | 1011.0 |
| 20260506103842 | 57 | 188 | 4.0 | 7.0 | 0.00 | 0.00 | 0.00 | 93 | 1011.0 |
| 20260506103339 | 57 | 220 | 3.0 | 7.0 | 0.00 | 0.00 | 0.00 | 93 | 1011.1 |
| 20260506102836 | 57 | 205 | 3.0 | 6.0 | 0.00 | 0.00 | 0.00 | 94 | 1011.1 |
| 20260506102334 | 56 | 198 | 4.0 | 8.0 | 0.00 | 0.00 | 0.00 | 94 | 1011.0 |
| 20260506101831 | 56 | 173 | 3.0 | 8.0 | 0.00 | 0.00 | 0.00 | 94 | 1011.1 |
| 20260506101327 | 56 | 241 | 2.0 | 7.0 | 0.00 | 0.00 | 0.00 | 94 | 1010.9 |
| 20260506100825 | 56 | 190 | 4.0 | 8.0 | 0.00 | 0.00 | 0.00 | 94 | 1011.1 |
| 20260506100324 | 56 | 210 | 2.0 | 7.0 | 0.00 | 0.00 | 0.00 | 94 | 1011.2 |
| 20260506095822 | 56 | 231 | 2.0 | 8.0 | 0.00 | 0.00 | 0.00 | 94 | 1011.0 |
| 20260506095318 | 56 | 167 | 3.0 | 4.0 | 0.00 | 0.00 | 0.00 | 94 | 1011.1 |
| 20260506094815 | 56 | 220 | 3.0 | 7.0 | 0.00 | 0.00 | 0.00 | 94 | 1011.1 |
| 20260506094314 | 56 | 271 | 1.0 | 9.0 | 0.00 | 0.00 | 0.00 | 94 | 1011.0 |
| 20260506093812 | 56 | 167 | 6.0 | 13.0 | 0.00 | 0.00 | 0.00 | 94 | 1010.9 |
| 20260506093308 | 56 | 207 | 4.0 | 6.0 | 0.00 | 0.00 | 0.00 | 94 | 1010.9 |
| 20260506092807 | 56 | 204 | 3.0 | 7.0 | 0.00 | 0.00 | 0.00 | 94 | 1010.9 |
| 20260506092306 | 56 | 229 | 4.0 | 10.0 | 0.00 | 0.00 | 0.00 | 94 | 1011.1 |
| 20260506091801 | 56 | 195 | 3.0 | 7.0 | 0.00 | 0.00 | 0.00 | 94 | 1010.9 |
| 20260506091258 | 56 | 221 | 4.0 | 7.0 | 0.00 | 0.00 | 0.00 | 94 | 1011.1 |
| 20260506090756 | 56 | 240 | 3.0 | 7.0 | 0.00 | 0.00 | 0.00 | 93 | 1011.1 |
| 20260506090253 | 56 | 186 | 3.0 | 6.0 | 0.00 | 0.00 | 0.00 | 93 | 1011.1 |
| 20260506085750 | 56 | 171 | 5.0 | 7.0 | 0.00 | 0.00 | 0.00 | 93 | 1011.2 |
| 20260506085246 | 56 | 179 | 2.0 | 6.0 | 0.00 | 0.00 | 0.00 | 93 | 1011.2 |
| 20260506084743 | 56 | 251 | 2.0 | 7.0 | 0.00 | 0.00 | 0.00 | 93 | 1011.4 |
| 20260506084239 | 56 | 198 | 2.0 | 6.0 | 0.00 | 0.00 | 0.00 | 93 | 1011.2 |
| 20260506083736 | 56 | 244 | 3.0 | 6.0 | 0.00 | 0.00 | 0.00 | 93 | 1011.1 |
| 20260506083234 | 56 | 191 | 1.0 | 4.0 | 0.00 | 0.00 | 0.00 | 92 | 1011.4 |
| 20260506082731 | 56 | 188 | 3.0 | 7.0 | 0.00 | 0.00 | 0.00 | 92 | 1011.4 |
| 20260506082226 | 56 | 235 | 2.0 | 6.0 | 0.00 | 0.00 | 0.00 | 92 | 1011.4 |
| 20260506081724 | 56 | 251 | 3.0 | 7.0 | 0.00 | 0.00 | 0.00 | 92 | 1011.5 |
| 20260506081221 | 56 | 225 | 2.0 | 6.0 | 0.00 | 0.00 | 0.00 | 92 | 1011.4 |
| 20260506080720 | 56 | 242 | 0.0 | 6.0 | 0.00 | 0.00 | 0.00 | 92 | 1011.4 |
| 20260506080216 | 56 | 241 | 2.0 | 6.0 | 0.00 | 0.00 | 0.00 | 92 | 1011.4 |
| 20260506073159 | 57 | 215 | 9.0 | 14.0 | 0.00 | 0.00 | 0.00 | 91 | 1011.6 |
| 20260506072651 | 57 | 214 | 6.0 | 13.0 | 0.00 | 0.00 | 0.00 | 91 | 1011.6 |
| 20260506072149 | 57 | 145 | 4.0 | 7.0 | 0.00 | 0.00 | 0.00 | 91 | 1011.7 |
| 20260506071646 | 57 | 205 | 5.0 | 9.0 | 0.00 | 0.00 | 0.00 | 90 | 1011.6 |
| 20260506071144 | 57 | 194 | 5.0 | 9.0 | 0.00 | 0.00 | 0.00 | 90 | 1011.7 |
| 20260506070640 | 57 | 252 | 3.0 | 7.0 | 0.00 | 0.00 | 0.00 | 90 | 1011.8 |
| 20260506070137 | 57 | 225 | 7.0 | 10.0 | 0.00 | 0.00 | 0.00 | 90 | 1011.7 |
| 20260506062115 | 57 | 215 | 6.0 | 11.0 | 0.00 | 0.00 | 0.00 | 89 | 1011.5 |
| 20260506061610 | 57 | 239 | 6.0 | 10.0 | 0.00 | 0.00 | 0.00 | 89 | 1011.5 |
| 20260506061108 | 57 | 239 | 3.0 | 6.0 | 0.00 | 0.00 | 0.00 | 89 | 1011.4 |
| 20260506060607 | 58 | 187 | 3.0 | 7.0 | 0.00 | 0.00 | 0.00 | 89 | 1011.4 |
| 20260506051035 | 58 | 261 | 5.0 | 7.0 | 0.00 | 0.00 | 0.00 | 86 | 1011.7 |
| 20260506050533 | 58 | 228 | 5.0 | 8.0 | 0.00 | 0.00 | 0.00 | 86 | 1011.7 |
| 20260506045024 | 59 | 296 | 4.0 | 9.0 | 0.00 | 0.00 | 0.00 | 85 | 1011.8 |
| 20260506044521 | 59 | 229 | 3.0 | 10.0 | 0.00 | 0.00 | 0.00 | 85 | 1011.8 |
| 20260506044018 | 59 | 283 | 3.0 | 10.0 | 0.00 | 0.00 | 0.00 | 85 | 1012.0 |
| 20260506043515 | 59 | 252 | 3.0 | 11.0 | 0.00 | 0.00 | 0.00 | 85 | 1012.0 |
| 20260506043014 | 59 | 203 | 2.0 | 15.0 | 0.00 | 0.00 | 0.00 | 84 | 1012.1 |
| 20260506042512 | 59 | 184 | 5.0 | 14.0 | 0.00 | 0.00 | 0.00 | 84 | 1012.1 |
| 20260506042010 | 59 | 238 | 5.0 | 8.0 | 0.00 | 0.00 | 0.00 | 84 | 1011.9 |
| 20260506041508 | 59 | 161 | 4.0 | 8.0 | 0.00 | 0.00 | 0.00 | 84 | 1012.0 |
| 20260506041005 | 60 | 197 | 6.0 | 10.0 | 0.00 | 0.00 | 0.00 | 83 | 1011.9 |
| 20260506040503 | 60 | 204 | 5.0 | 13.0 | 0.00 | 0.00 | 0.00 | 83 | 1012.0 |
| 20260506035958 | 60 | 248 | 5.0 | 8.0 | 0.00 | 0.00 | 0.00 | 82 | 1012.0 |
| 20260506035455 | 60 | 258 | 4.0 | 7.0 | 0.00 | 0.00 | 0.00 | 82 | 1012.0 |
| 20260506034952 | 60 | 220 | 3.0 | 14.0 | 0.00 | 0.00 | 0.00 | 82 | 1011.8 |
| 20260506034450 | 60 | 241 | 2.0 | 10.0 | 0.00 | 0.00 | 0.00 | 82 | 1011.9 |
| 20260506033946 | 60 | 105 | 5.0 | 8.0 | 0.00 | 0.00 | 0.00 | 82 | 1011.9 |
| 20260506033444 | 60 | 220 | 5.0 | 9.0 | 0.00 | 0.00 | 0.00 | 82 | 1011.9 |
| 20260506032940 | 60 | 4 | 4.0 | 7.0 | 0.00 | 0.00 | 0.00 | 82 | 1011.8 |
| 20260506032438 | 60 | 257 | 6.0 | 10.0 | 0.00 | 0.00 | 0.00 | 82 | 1012.0 |
| 20260506031934 | 60 | 226 | 3.0 | 10.0 | 0.00 | 0.00 | 0.00 | 82 | 1011.8 |
| 20260506031431 | 60 | 242 | 6.0 | 8.0 | 0.00 | 0.00 | 0.00 | 82 | 1011.8 |
| 20260506030929 | 60 | 180 | 3.0 | 11.0 | 0.00 | 0.00 | 0.00 | 82 | 1011.8 |
| 20260506030427 | 60 | 175 | 4.0 | 11.0 | 0.00 | 0.00 | 0.00 | 82 | 1012.0 |
| 20260506025923 | 60 | 237 | 6.0 | 8.0 | 0.00 | 0.00 | 0.00 | 82 | 1011.9 |
| 20260506025420 | 61 | 263 | 3.0 | 11.0 | 0.00 | 0.00 | 0.00 | 82 | 1012.1 |
| 20260506024917 | 61 | 167 | 6.0 | 16.0 | 0.00 | 0.00 | 0.00 | 82 | 1012.0 |
| 20260506024414 | 61 | 246 | 5.0 | 14.0 | 0.00 | 0.00 | 0.00 | 81 | 1011.8 |
| 20260506023910 | 61 | 321 | 5.0 | 11.0 | 0.00 | 0.00 | 0.00 | 81 | 1011.7 |
| 20260506023407 | 61 | 297 | 10.0 | 14.0 | 0.00 | 0.00 | 0.00 | 81 | 1011.6 |
| 20260506022904 | 61 | 142 | 7.0 | 14.0 | 0.00 | 0.00 | 0.00 | 81 | 1011.8 |
| 20260506022401 | 61 | 202 | 5.0 | 9.0 | 0.00 | 0.00 | 0.00 | 81 | 1011.7 |
| 20260506021859 | 61 | 207 | 4.0 | 14.0 | 0.00 | 0.00 | 0.00 | 80 | 1012.0 |
| 20260506021356 | 61 | 206 | 6.0 | 17.0 | 0.00 | 0.00 | 0.00 | 80 | 1011.9 |
| 20260506020853 | 61 | 208 | 4.0 | 13.0 | 0.00 | 0.00 | 0.00 | 79 | 1011.9 |
| 20260506020351 | 61 | 240 | 4.0 | 10.0 | 0.00 | 0.00 | 0.00 | 79 | 1011.8 |
| 20260506015848 | 61 | 197 | 8.0 | 10.0 | 0.00 | 0.00 | 0.00 | 78 | 1011.7 |
| 20260506015345 | 61 | 167 | 5.0 | 9.0 | 0.00 | 0.00 | 0.00 | 77 | 1011.9 |
| 20260506014842 | 62 | 302 | 4.0 | 16.0 | 0.00 | 0.00 | 0.00 | 76 | 1011.7 |
| 20260506014339 | 62 | 191 | 5.0 | 10.0 | 0.00 | 0.00 | 0.00 | 76 | 1011.8 |
| 20260506013835 | 62 | 170 | 4.0 | 11.0 | 0.00 | 0.00 | 0.00 | 75 | 1011.6 |
| 20260506013333 | 62 | 236 | 6.0 | 8.0 | 0.00 | 0.00 | 0.00 | 75 | 1011.7 |
| 20260506012829 | 62 | 194 | 4.0 | 16.0 | 0.00 | 0.00 | 0.00 | 74 | 1011.4 |
| 20260506012326 | 63 | 262 | 8.0 | 22.0 | 0.00 | 0.00 | 0.00 | 74 | 1011.5 |
| 20260506011824 | 63 | 179 | 8.0 | 16.0 | 0.00 | 0.00 | 0.00 | 73 | 1011.4 |
| 20260506011320 | 63 | 174 | 6.0 | 14.0 | 0.00 | 0.00 | 0.00 | 73 | 1011.2 |
| 20260506010818 | 63 | 253 | 4.0 | 19.0 | 0.00 | 0.00 | 0.00 | 72 | 1011.2 |
| 20260506010315 | 63 | 273 | 3.0 | 15.0 | 0.00 | 0.00 | 0.00 | 72 | 1011.0 |
| 20260506005812 | 63 | 215 | 4.0 | 9.0 | 0.00 | 0.00 | 0.00 | 72 | 1011.1 |
| 20260506005309 | 63 | 208 | 5.0 | 10.0 | 0.00 | 0.00 | 0.00 | 72 | 1011.1 |
| 20260506004805 | 63 | 230 | 4.0 | 11.0 | 0.00 | 0.00 | 0.00 | 72 | 1011.0 |
| 20260506004303 | 63 | 244 | 5.0 | 13.0 | 0.00 | 0.00 | 0.00 | 71 | 1011.1 |
| 20260506003759 | 63 | 226 | 4.0 | 14.0 | 0.00 | 0.00 | 0.00 | 72 | 1010.9 |
| 20260506003256 | 63 | 240 | 3.0 | 13.0 | 0.00 | 0.00 | 0.00 | 72 | 1010.9 |
| 20260506002751 | 63 | 207 | 10.0 | 13.0 | 0.00 | 0.00 | 0.00 | 72 | 1011.1 |
| 20260506002248 | 63 | 165 | 5.0 | 8.0 | 0.00 | 0.00 | 0.00 | 72 | 1010.7 |
| 20260506001743 | 63 | 218 | 5.0 | 13.0 | 0.00 | 0.00 | 0.00 | 72 | 1010.7 |
| 20260506001241 | 63 | 247 | 6.0 | 11.0 | 0.00 | 0.00 | 0.00 | 72 | 1010.8 |
| 20260506000738 | 63 | 237 | 6.0 | 14.0 | 0.00 | 0.00 | 0.00 | 72 | 1010.5 |
| 20260506000235 | 63 | 235 | 7.0 | 15.0 | 0.00 | 0.00 | 0.00 | 72 | 1010.4 |
| 20260505235732 | 63 | 177 | 7.0 | 14.0 | 0.00 | 0.00 | 0.00 | 72 | 1010.6 |
| 20260505235230 | 63 | 239 | 4.0 | 9.0 | 0.00 | 0.00 | 0.00 | 72 | 1010.5 |
| 20260505234727 | 63 | 285 | 7.0 | 13.0 | 0.00 | 0.00 | 0.00 | 72 | 1010.4 |
| 20260505234224 | 63 | 230 | 6.0 | 13.0 | 0.00 | 0.00 | 0.00 | 72 | 1010.3 |
| 20260505233720 | 63 | 171 | 6.0 | 14.0 | 0.00 | 0.00 | 0.00 | 72 | 1010.2 |
| 20260505233219 | 63 | 202 | 7.0 | 10.0 | 0.00 | 0.00 | 0.00 | 72 | 1010.4 |
| 20260505232715 | 63 | 92 | 5.0 | 13.0 | 0.00 | 0.00 | 0.00 | 71 | 1010.0 |
| 20260505232213 | 64 | 263 | 4.0 | 14.0 | 0.00 | 0.00 | 0.00 | 70 | 1009.9 |
| 20260505231709 | 64 | 235 | 2.0 | 10.0 | 0.00 | 0.00 | 0.00 | 70 | 1010.0 |
| 20260505231209 | 64 | 245 | 9.0 | 15.0 | 0.00 | 0.00 | 0.00 | 69 | 1009.9 |
| 20260505230706 | 65 | 220 | 4.0 | 9.0 | 0.00 | 0.00 | 0.00 | 69 | 1009.6 |
| 20260505230203 | 65 | 221 | 4.0 | 13.0 | 0.00 | 0.00 | 0.00 | 68 | 1009.7 |
| 20260505225659 | 65 | 274 | 4.0 | 14.0 | 0.00 | 0.00 | 0.00 | 67 | 1009.7 |
| 20260505225156 | 65 | 219 | 5.0 | 8.0 | 0.00 | 0.00 | 0.00 | 67 | 1009.8 |
| 20260505224651 | 65 | 234 | 5.0 | 14.0 | 0.00 | 0.00 | 0.00 | 67 | 1009.9 |
| 20260505224150 | 65 | 243 | 4.0 | 11.0 | 0.00 | 0.00 | 0.00 | 68 | 1009.8 |
| 20260505223647 | 65 | 187 | 5.0 | 7.0 | 0.00 | 0.00 | 0.00 | 68 | 1009.6 |
| 20260505223142 | 66 | 262 | 4.0 | 10.0 | 0.00 | 0.00 | 0.00 | 67 | 1009.7 |
| 20260505222638 | 66 | 218 | 4.0 | 9.0 | 0.00 | 0.00 | 0.00 | 66 | 1009.8 |
| 20260505222135 | 66 | 240 | 3.0 | 4.0 | 0.00 | 0.00 | 0.00 | 66 | 1009.8 |
| 20260505221632 | 66 | 213 | 4.0 | 15.0 | 0.00 | 0.00 | 0.00 | 66 | 1009.6 |
| 20260505221128 | 66 | 217 | 2.0 | 11.0 | 0.00 | 0.00 | 0.00 | 66 | 1009.8 |
| 20260505220626 | 66 | 227 | 9.0 | 11.0 | 0.00 | 0.00 | 0.00 | 66 | 1009.4 |
| 20260505220124 | 66 | 210 | 6.0 | 18.0 | 0.00 | 0.00 | 0.00 | 66 | 1009.4 |
| 20260505215621 | 66 | 205 | 9.0 | 13.0 | 0.00 | 0.00 | 0.00 | 65 | 1009.6 |
| 20260505215119 | 67 | 215 | 4.0 | 15.0 | 0.00 | 0.00 | 0.00 | 65 | 1009.7 |
| 20260505214617 | 67 | 247 | 7.0 | 11.0 | 0.00 | 0.00 | 0.00 | 64 | 1009.5 |
| 20260505214114 | 67 | 248 | 2.0 | 14.0 | 0.00 | 0.00 | 0.00 | 65 | 1009.6 |
| 20260505213612 | 67 | 193 | 7.0 | 13.0 | 0.00 | 0.00 | 0.00 | 65 | 1009.3 |
| 20260505213108 | 67 | 160 | 8.0 | 10.0 | 0.00 | 0.00 | 0.00 | 64 | 1009.5 |
| 20260505212604 | 67 | 252 | 6.0 | 13.0 | 0.00 | 0.00 | 0.00 | 65 | 1009.3 |
| 20260505212102 | 67 | 158 | 4.0 | 10.0 | 0.00 | 0.00 | 0.00 | 65 | 1009.3 |
| 20260505211558 | 67 | 218 | 5.0 | 10.0 | 0.00 | 0.00 | 0.00 | 65 | 1009.2 |
| 20260505211056 | 67 | 195 | 5.0 | 8.0 | 0.00 | 0.00 | 0.00 | 65 | 1009.2 |
| 20260505210552 | 67 | 204 | 6.0 | 15.0 | 0.00 | 0.00 | 0.00 | 65 | 1009.3 |
| 20260505210049 | 68 | 159 | 3.0 | 11.0 | 0.00 | 0.00 | 0.00 | 65 | 1009.2 |
| 20260505205547 | 68 | 193 | 4.0 | 8.0 | 0.00 | 0.00 | 0.00 | 64 | 1009.0 |
| 20260505205044 | 68 | 197 | 3.0 | 10.0 | 0.00 | 0.00 | 0.00 | 65 | 1009.2 |
| 20260505204542 | 68 | 219 | 2.0 | 9.0 | 0.00 | 0.00 | 0.00 | 65 | 1009.3 |
| 20260505204039 | 68 | 222 | 5.0 | 11.0 | 0.00 | 0.00 | 0.00 | 65 | 1009.2 |
| 20260505203535 | 68 | 197 | 7.0 | 10.0 | 0.00 | 0.00 | 0.00 | 65 | 1009.1 |
| 20260505203033 | 68 | 231 | 6.0 | 9.0 | 0.00 | 0.00 | 0.00 | 64 | 1009.3 |
| 20260505202528 | 68 | 207 | 3.0 | 14.0 | 0.00 | 0.00 | 0.00 | 65 | 1009.3 |
| 20260505202024 | 68 | 215 | 4.0 | 6.0 | 0.00 | 0.00 | 0.00 | 64 | 1009.5 |
| 20260505201522 | 69 | 151 | 3.0 | 7.0 | 0.00 | 0.00 | 0.00 | 64 | 1009.4 |
| 20260505201019 | 69 | 244 | 1.0 | 8.0 | 0.00 | 0.00 | 0.00 | 65 | 1009.4 |
| 20260505200517 | 69 | 212 | 1.0 | 4.0 | 0.00 | 0.00 | 0.00 | 64 | 1009.4 |
| 20260505200014 | 68 | 243 | 6.0 | 10.0 | 0.00 | 0.00 | 0.00 | 64 | 1009.5 |
| 20260505195509 | 69 | 164 | 2.0 | 13.0 | 0.00 | 0.00 | 0.00 | 64 | 1009.6 |
| 20260505195007 | 69 | 245 | 4.0 | 13.0 | 0.00 | 0.00 | 0.00 | 64 | 1009.6 |
| 20260505194504 | 69 | 219 | 4.0 | 7.0 | 0.00 | 0.00 | 0.00 | 63 | 1009.8 |
| 20260505194004 | 69 | 267 | 3.0 | 11.0 | 0.00 | 0.00 | 0.00 | 64 | 1009.6 |
| 20260505193502 | 69 | 203 | 6.0 | 14.0 | 0.00 | 0.00 | 0.00 | 63 | 1009.7 |
| 20260505192959 | 69 | 190 | 7.0 | 8.0 | 0.00 | 0.00 | 0.00 | 63 | 1009.9 |
| 20260505192458 | 69 | 208 | 4.0 | 10.0 | 0.00 | 0.00 | 0.00 | 63 | 1010.1 |
| 20260505191955 | 69 | 197 | 6.0 | 10.0 | 0.00 | 0.00 | 0.00 | 63 | 1010.1 |
| 20260505191453 | 70 | 190 | 6.0 | 8.0 | 0.00 | 0.00 | 0.00 | 62 | 1010.2 |
| 20260505190950 | 69 | 187 | 2.0 | 10.0 | 0.00 | 0.00 | 0.00 | 64 | 1010.1 |
| 20260505190445 | 69 | 189 | 8.0 | 11.0 | 0.00 | 0.00 | 0.00 | 64 | 1010.3 |
| 20260505185941 | 69 | 229 | 3.0 | 7.0 | 0.00 | 0.00 | 0.00 | 65 | 1010.5 |
| 20260505185438 | 69 | 204 | 3.0 | 9.0 | 0.00 | 0.00 | 0.00 | 66 | 1010.3 |
| 20260505184934 | 70 | 214 | 2.0 | 7.0 | 0.00 | 0.00 | 0.00 | 65 | 1010.6 |
| 20260505184431 | 69 | 238 | 2.0 | 6.0 | 0.00 | 0.00 | 0.00 | 64 | 1010.5 |
| 20260505183928 | 70 | 213 | 4.0 | 11.0 | 0.00 | 0.00 | 0.00 | 64 | 1010.5 |
| 20260505183425 | 70 | 297 | 5.0 | 9.0 | 0.00 | 0.00 | 0.00 | 63 | 1010.7 |
| 20260505182922 | 70 | 170 | 4.0 | 7.0 | 0.00 | 0.00 | 0.00 | 63 | 1010.6 |
| 20260505182419 | 70 | 226 | 2.0 | 7.0 | 0.00 | 0.00 | 0.00 | 64 | 1010.5 |
| 20260505181915 | 70 | 219 | 2.0 | 8.0 | 0.00 | 0.00 | 0.00 | 64 | 1010.7 |
| 20260505181412 | 70 | 196 | 2.0 | 3.0 | 0.00 | 0.00 | 0.00 | 65 | 1010.5 |
| 20260505180909 | 69 | 229 | 3.0 | 4.0 | 0.00 | 0.00 | 0.00 | 64 | 1010.8 |
| 20260505180406 | 70 | 250 | 3.0 | 9.0 | 0.00 | 0.00 | 0.00 | 66 | 1010.9 |
| 20260505175902 | 71 | 239 | 2.0 | 7.0 | 0.00 | 0.00 | 0.00 | 64 | 1010.8 |
| 20260505175358 | 69 | 225 | 1.0 | 7.0 | 0.00 | 0.00 | 0.00 | 66 | 1010.8 |
| 20260505174855 | 69 | 173 | 8.0 | 10.0 | 0.00 | 0.00 | 0.00 | 65 | 1011.0 |
| 20260505174353 | 68 | 187 | 5.0 | 8.0 | 0.00 | 0.00 | 0.00 | 67 | 1010.9 |
| 20260505173848 | 68 | 251 | 7.0 | 9.0 | 0.00 | 0.00 | 0.00 | 66 | 1010.8 |
| 20260505173345 | 68 | 216 | 4.0 | 9.0 | 0.00 | 0.00 | 0.00 | 67 | 1010.9 |
| 20260505172842 | 68 | 201 | 6.0 | 7.0 | 0.00 | 0.00 | 0.00 | 67 | 1011.0 |
| 20260505172340 | 69 | 183 | 2.0 | 7.0 | 0.00 | 0.00 | 0.00 | 67 | 1011.0 |
| 20260505171839 | 68 | 222 | 1.0 | 9.0 | 0.00 | 0.00 | 0.00 | 69 | 1011.0 |
| 20260505171337 | 69 | 244 | 6.0 | 9.0 | 0.00 | 0.00 | 0.00 | 66 | 1011.0 |
| 20260505170833 | 69 | 252 | 5.0 | 8.0 | 0.00 | 0.00 | 0.00 | 65 | 1011.0 |
| 20260505170330 | 70 | 210 | 2.0 | 9.0 | 0.00 | 0.00 | 0.00 | 65 | 1011.0 |
| 20260505165825 | 71 | 259 | 0.0 | 7.0 | 0.00 | 0.00 | 0.00 | 64 | 1011.1 |
| 20260505165321 | 70 | 217 | 2.0 | 4.0 | 0.00 | 0.00 | 0.00 | 65 | 1011.2 |
| 20260505164816 | 70 | 171 | 3.0 | 9.0 | 0.00 | 0.00 | 0.00 | 66 | 1011.2 |
| 20260505164314 | 70 | 246 | 1.0 | 4.0 | 0.00 | 0.00 | 0.00 | 65 | 1011.2 |
| 20260505163812 | 70 | 183 | 1.0 | 4.0 | 0.00 | 0.00 | 0.00 | 67 | 1011.3 |
| 20260505163311 | 69 | 238 | 4.0 | 7.0 | 0.00 | 0.00 | 0.00 | 65 | 1011.4 |
| 20260505162808 | 68 | 274 | 4.0 | 6.0 | 0.00 | 0.00 | 0.00 | 68 | 1011.4 |
| 20260505162306 | 69 | 196 | 2.0 | 6.0 | 0.00 | 0.00 | 0.00 | 67 | 1011.3 |
| 20260505161801 | 71 | 189 | 1.0 | 7.0 | 0.00 | 0.00 | 0.00 | 65 | 1011.3 |
| 20260505161259 | 70 | 231 | 0.0 | 2.0 | 0.00 | 0.00 | 0.00 | 65 | 1011.3 |
| 20260505160756 | 71 | 255 | 4.0 | 7.0 | 0.00 | 0.00 | 0.00 | 63 | 1011.6 |
| 20260505160254 | 70 | 206 | 2.0 | 8.0 | 0.00 | 0.00 | 0.00 | 65 | 1011.6 |
| 20260505153232 | 69 | 210 | 4.0 | 9.0 | 0.00 | 0.00 | 0.00 | 66 | 1011.6 |
| 20260505152729 | 69 | 175 | 0.0 | 6.0 | 0.00 | 0.00 | 0.00 | 65 | 1011.9 |
| 20260505152226 | 68 | 178 | 2.0 | 11.0 | 0.00 | 0.00 | 0.00 | 66 | 1011.8 |
| 20260505151720 | 69 | 212 | 5.0 | 9.0 | 0.00 | 0.00 | 0.00 | 65 | 1011.8 |
| 20260505151218 | 69 | 188 | 3.0 | 4.0 | 0.00 | 0.00 | 0.00 | 66 | 1012.0 |
| 20260505150715 | 68 | 349 | 0.0 | 6.0 | 0.00 | 0.00 | 0.00 | 67 | 1012.0 |
| 20260505150212 | 68 | 227 | 3.0 | 6.0 | 0.00 | 0.00 | 0.00 | 68 | 1012.1 |
| 20260505140645 | 67 | 218 | 4.0 | 6.0 | 0.00 | 0.00 | 0.00 | 70 | 1012.0 |
| 20260505140142 | 67 | 190 | 2.0 | 6.0 | 0.00 | 0.00 | 0.00 | 69 | 1011.7 |